Regional Weather Roundup
Issued by NWS Spokane, WA

Home | Current Version | Previous Version | Text Only | Print | Product List | Glossary On
Versions: 1 2 3 4 5 6 7 8 9 10 11 12 13 14 15 16 17 18 19 20 21 22 23 24 25 26 27 28 29 30 31 32 33 34 35 36 37 38 39 40 41 42 43 44 45 46 47 48 49 50
000
NZUS01 KOTX 190110
RWROTX
EASTERN WASHINGTON/NORTHERN IDAHO ROUNDUP
NATIONAL WEATHER SERVICE, SPOKANE WA
600 PM PDT SAT APR 18 2015

Note: "fair" indicated few or no clouds below 12,000 feet with no
significant weather and/or obstructions to visibility.

...NORTHEAST WASHINGTON AND NORTHERN IDAHO PANHANDLE...

CITY           SKY/WX    TMP DP  RH WIND       PRES   REMARKS
SPOKANE INTL   MOSUNNY   67  16  14 N10       30.16F
SPOKANE DOWNTO SUNNY     68  18  14 NW8       30.17S
COEUR D ALENE  MOSUNNY   64  21  19 W15       30.16S
DEER PARK      SUNNY     66  17  15 NW13      30.17S
SANDPOINT      MOSUNNY   64  19  17 W7        30.14S
BONNERS FERRY  FAIR      63  19  19 N12       30.14S

...SOUTHEAST WASHINGTON AND SOUTHERN IDAHO PANHANDLE...

CITY           SKY/WX    TMP DP  RH WIND       PRES   REMARKS
WALLA WALLA    SUNNY     69  30  23 VRB5      30.19F
PULLMAN/MOSCOW SUNNY     63  22  20 W14       30.20F
LEWISTON       LGT RAIN  69  23  17 W10       30.17F
LOWELL           N/A     59  41  51 N3        30.15S

...COLUMBIA BASIN...

CITY           SKY/WX    TMP DP  RH WIND       PRES   REMARKS
EPHRATA        MOSUNNY   70  26  19 SW8       30.17F
MOSES LAKE     MOSUNNY   71  21  15 W7        30.19F
TRI CITIES     SUNNY     73  26  17 CALM      30.19F
HERMISTON      SUNNY     72  24  16 E7        30.18F
PENDLETON      SUNNY     67  28  23 NW6       30.20F

...EAST SLOPES CASCADES...

CITY           SKY/WX    TMP DP  RH WIND       PRES   REMARKS
THE DALLES     SUNNY     77  26  15 CALM      30.16F
YAKIMA         SUNNY     74  24  15 VRB3      30.17F
ELLENSBURG     SUNNY     73  28  18 E7        30.17F
WENATCHEE      MOSUNNY   71  29  21 SE9       30.16F
OMAK           MOSUNNY   69  25  19 N9        30.19F

...SOUTHERN BRITISH COLUMBIA...

CITY           SKY/WX    TMP DP  RH WIND       PRES   REMARKS
CRANBROOK      MOSUNNY   59  19  21 N13       30.16S

...WESTERN MONTANA...

CITY           SKY/WX    TMP DP  RH WIND       PRES   REMARKS
MISSOULA       SUNNY     62  22  21 N17G24    30.10S

...NEIGHBORING CITIES...

CITY           SKY/WX    TMP DP  RH WIND       PRES   REMARKS
SEATTLE        MOSUNNY   64  36  35 N9        30.28F
CALGARY        MOSUNNY   50  10  20 N13G20    30.25S



USA.gov is the U.S. government's official web portal to all federal, state and local government web resources and services.